CW2099 Weather Reports


time (UTC)temp
C
wind
direction
speed
KPH
gust
KPH
rain 1hr
cm
rain 24hr
cm
rain mn
cm
humidity
%
barometer
mb
20260906161542 21 315 1.6 4.8 0.00 0.00 0.00 61 1020.0
20260906160040 21 311 1.6 3.2 0.00 0.00 0.00 61 1020.0
20260906154539 21 303 1.6 3.2 0.00 0.00 0.00 61 1020.0
20260906153039 20 284 0.0 3.2 0.00 0.00 0.00 62 1020.0
20260906151532 20 284 3.2 6.4 0.00 0.00 0.00 62 1019.9
20260906150028 20 306 0.0 3.2 0.00 0.00 0.00 64 1020.1
20260906144525 19 306 0.0 3.2 0.00 0.00 0.00 66 1020.1
20260906143024 19 306 0.0 1.6 0.00 0.00 0.00 67 1020.1
20260906141523 19 286 0.0 0.0 0.00 0.00 0.00 69 1020.3
20260906140020 18 286 0.0 0.0 0.00 0.00 0.00 72 1020.2
20260906134516 17 286 0.0 0.0 0.00 0.00 0.00 75 1020.0
20260906133013 16 286 0.0 4.8 0.00 0.00 0.00 76 1020.0
20260906131520 15 286 0.0 3.2 0.00 0.00 0.00 78 1019.8
20260906130009 15 286 0.0 0.0 0.00 0.00 0.00 83 1019.9
20260906124511 14 286 0.0 0.0 0.00 0.00 0.00 85 1019.8
20260906123006 14 286 0.0 0.0 0.00 0.00 0.00 84 1019.6
20260906121508 14 286 0.0 0.0 0.00 0.00 0.00 84 1019.6
20260906120007 13 286 0.0 0.0 0.00 0.00 0.00 84 1019.5
20260906114506 13 286 0.0 0.0 0.00 0.00 0.00 85 1019.4
20260906113007 13 286 0.0 0.0 0.00 0.00 0.00 85 1019.2
20260906111504 13 286 0.0 0.0 0.00 0.00 0.00 85 1019.2
20260906110005 13 286 0.0 0.0 0.00 0.00 0.00 85 1019.0
20260906104504 13 286 0.0 0.0 0.00 0.00 0.00 84 1018.9
20260906103003 13 286 0.0 0.0 0.00 0.00 0.00 85 1019.0
20260906101502 13 286 0.0 0.0 0.00 0.00 0.00 85 1018.8
20260906100002 13 286 0.0 0.0 0.00 0.00 0.00 84 1018.9
20260906094501 13 286 0.0 0.0 0.00 0.00 0.00 84 1018.9
20260906093100 13 286 0.0 0.0 0.00 0.00 0.00 84 1019.1
20260906090108 13 286 0.0 0.0 0.00 0.00 0.00 84 1019.2
20260906084559 13 286 0.0 0.0 0.00 0.00 0.00 84 1019.0
20260906083056 14 286 0.0 0.0 0.00 0.00 0.00 84 1019.2
20260906080201 14 286 0.0 0.0 0.00 0.00 0.00 84 1019.1
20260906074558 14 286 0.0 0.0 0.00 0.00 0.00 84 1019.2
20260906073050 14 286 0.0 1.6 0.00 0.00 0.00 84 1018.9
20260906070047 15 286 0.0 0.0 0.00 0.00 0.00 83 1018.8
20260906064546 15 286 0.0 0.0 0.00 0.00 0.00 83 1018.8
20260906063044 15 286 0.0 0.0 0.00 0.00 0.00 83 1018.9
20260906060054 15 286 0.0 0.0 0.00 0.00 0.00 82 1018.9
20260906054540 15 286 0.0 0.0 0.00 0.00 0.00 83 1018.6
20260906053038 15 286 0.0 0.0 0.00 0.00 0.00 82 1018.4
20260906050035 16 286 0.0 0.0 0.00 0.00 0.00 82 1018.2
20260906044535 16 286 0.0 0.0 0.00 0.00 0.00 81 1018.1
20260906043036 16 286 0.0 0.0 0.00 0.00 0.00 80 1018.1
20260906040030 16 286 0.0 0.0 0.00 0.00 0.00 80 1017.8
20260906034534 16 286 0.0 0.0 0.00 0.00 0.00 79 1017.7
20260906033032 16 286 0.0 0.0 0.00 0.00 0.00 79 1017.5
20260906030029 17 286 0.0 0.0 0.00 0.00 0.00 77 1017.5
20260906024528 17 286 0.0 0.0 0.00 0.00 0.00 77 1017.4
20260906023032 17 286 0.0 0.0 0.00 0.00 0.00 76 1017.4
20260906020030 17 286 0.0 0.0 0.00 0.00 0.00 75 1017.3
20260906014534 18 286 0.0 0.0 0.00 0.00 0.00 74 1017.1
20260906013028 18 286 0.0 0.0 0.00 0.00 0.00 73 1016.9
20260906010027 19 286 0.0 0.0 0.00 0.00 0.00 71 1016.8
20260906004527 20 286 0.0 0.0 0.00 0.00 0.00 70 1016.7
20260906003026 21 286 0.0 3.2 0.00 0.00 0.00 68 1016.6
20260906000026 21 286 0.0 1.6 0.00 0.00 0.00 64 1016.5
20260905234525 22 286 0.0 4.8 0.00 0.00 0.00 61 1016.4
20260905233024 22 286 4.8 6.4 0.00 0.00 0.00 59 1016.3
20260905230025 22 305 0.0 4.8 0.00 0.03 0.00 60 1016.3
20260905224525 23 305 0.0 3.2 0.00 0.03 0.00 59 1016.4
20260905223025 23 305 0.0 4.8 0.00 0.03 0.00 57 1016.4
20260905220023 23 287 0.0 3.2 0.00 0.03 0.00 58 1016.5
20260905214523 23 287 0.0 0.0 0.00 0.03 0.00 60 1016.6
20260905213031 23 287 0.0 1.6 0.00 0.03 0.00 58 1016.7
20260905210029 23 287 0.0 3.2 0.00 0.03 0.00 57 1016.5
20260905204523 23 287 0.0 0.0 0.00 0.03 0.00 57 1016.4
20260905203022 23 287 0.0 3.2 0.00 0.03 0.00 58 1016.7
20260905200020 23 281 1.6 4.8 0.00 0.05 0.00 58 1016.5
20260905194517 23 266 8.0 12.9 0.00 0.05 0.00 59 1016.6
20260905193017 23 275 0.0 6.4 0.00 0.05 0.00 61 1016.6
20260905190013 22 275 0.0 4.8 0.00 0.05 0.00 60 1016.7
20260905184512 22 269 8.0 12.9 0.00 0.05 0.00 61 1016.9
20260905183010 22 279 4.8 11.3 0.00 0.05 0.00 61 1016.9
20260905180007 22 273 1.6 12.9 0.00 0.05 0.00 61 1017.0
20260905174512 22 265 6.4 17.7 0.00 0.05 0.00 61 1017.1
20260905173008 21 270 4.8 12.9 0.00 0.05 0.00 64 1017.2
20260905170106 21 265 8.0 19.3 0.00 0.05 0.00 65 1017.4
20260905164556 21 296 6.4 12.9 0.00 0.05 0.00 66 1017.6
20260905163054 20 269 9.7 14.5 0.00 0.05 0.00 65 1017.6